Guadalajara Don Miguel, Mexico

3:48 AM CST on March 30, 2017 (GMT -0600)
Don Miguel Hidalgo International

Weather History for MMGL - January, 2013

Change the Weather History Date:

Saturday, January 26, 2013

  Actual Average Record
Temperature  
Mean Temperature 60 °F -  
Max Temperature 77 °F 75 °F 84 °F (2000)
Min Temperature 42 °F 39 °F 32 °F (1998)
Degree Days  
Heating Degree Days 6    
Growing Degree Days 10 (Base 50)    
Moisture  
Dew Point 37 °F    
Average Humidity 48    
Maximum Humidity 81    
Minimum Humidity 16    
Precipitation  
Precipitation 0.00 in - - ()
Sea Level Pressure  
Sea Level Pressure 30.12 in    
Wind  
Wind Speed 1 mph ()    
Max Wind Speed 7 mph    
Max Gust Speed -    
Visibility 9.0 miles    
Events      
Averages and records for this station are not official NWS values.
T = Trace of Precipitation, MM = Missing Value Source: Averaged Metar Reports

Daily Weather History Graph

Daily Weather History Graph

Search for Another Location

Airport or City:

Trip Planner

Search our weather history database for the weather conditions in past years. The results will help you decide how hot, cold, wet, or windy it might be!

Date:

Astronomy

Jan. 26, 2013 Rise Set
Actual Time 7:31 AM CST 6:41 PM CST
Civil Twilight 7:07 AM CST 7:04 PM CST
Nautical Twilight 6:41 AM CST 7:31 PM CST
Astronomical Twilight 6:14 AM CST 7:57 PM CST
Moon 6:31 PM CST (1/26) 6:54 AM CST (1/26)
Length of Visible Light 11h 56m
Length of Day
11h 10m
Full, 100% of the Moon is Illuminated
Jan 26
Full
Jan 26
Full
Feb 3
Last Quarter
Feb 10
New
Feb 17
First Quarter

Hourly Weather History & Observations

Time (CST) Temp. Dew Point Humidity Pressure Visibility Wind Dir Wind Speed Gust Speed Precip Events Conditions
12:46 AM 50.0 °F 39.2 °F 66% 30.22 in 10.0 mi Calm Calm - N/A   Clear
1:40 AM 50.0 °F 37.4 °F 62% 30.22 in 10.0 mi Calm Calm - N/A   Clear
2:46 AM 48.2 °F 39.2 °F 71% 29.96 in 10.0 mi Calm Calm - N/A   Clear
3:40 AM 48.2 °F 37.4 °F 66% 30.20 in 10.0 mi Calm Calm - N/A   Clear
4:40 AM 44.6 °F 37.4 °F 76% 30.21 in 10.0 mi Calm Calm - N/A   Clear
5:48 AM 44.6 °F 37.4 °F 76% 29.99 in 10.0 mi Calm Calm - N/A   Clear
6:44 AM 42.8 °F 37.4 °F 81% 30.22 in 10.0 mi Calm Calm - N/A   Clear
7:51 AM 44.6 °F 39.2 °F 81% 30.24 in 8.0 mi Calm Calm - N/A   Clear
8:51 AM 53.6 °F 41.0 °F 62% 30.09 in 7.0 mi Calm Calm - N/A   Clear
9:53 AM 60.8 °F 42.8 °F 52% 30.27 in 7.0 mi Calm Calm - N/A   Clear
10:48 AM 66.2 °F 42.8 °F 43% 30.27 in 7.0 mi SSE 3.5 mph - N/A   Clear
11:44 AM 69.8 °F 37.4 °F 31% 30.02 in 8.0 mi Calm Calm - N/A   Clear
12:52 PM 73.4 °F 37.4 °F 27% 30.22 in 8.0 mi ESE 4.6 mph - N/A   Clear
1:52 PM 77.0 °F 33.8 °F 21% 30.19 in 8.0 mi Calm Calm - N/A   Clear
2:41 PM 77.0 °F 26.6 °F 16% 29.91 in 8.0 mi NNE 5.8 mph - N/A   Clear
3:50 PM 77.0 °F 32.0 °F 19% 30.13 in 8.0 mi ENE 6.9 mph - N/A   Partly Cloudy
4:52 PM 77.0 °F 32.0 °F 19% 30.12 in 8.0 mi NNE 5.8 mph - N/A   Partly Cloudy
5:44 PM 77.0 °F 33.8 °F 21% 29.91 in 10.0 mi Calm Calm - N/A   Clear
6:44 PM 69.8 °F 35.6 °F 28% 30.14 in 10.0 mi WNW 4.6 mph - N/A   Clear
7:41 PM 66.2 °F 39.2 °F 37% 30.15 in 10.0 mi Calm Calm - N/A   Clear
8:41 PM 60.8 °F 39.2 °F 45% 29.99 in 10.0 mi SSW 3.5 mph - N/A   Clear
9:54 PM 57.2 °F 39.2 °F 51% 30.19 in 10.0 mi Calm Calm - N/A   Clear
10:53 PM 60.8 °F 39.2 °F 45% 30.19 in 10.0 mi Calm Calm - N/A   Clear
11:53 PM 60.8 °F 41.0 °F 48% 29.92 in 10.0 mi Calm Calm - N/A   Clear